RH
11 11 13 13 11 9 9 9 14 17 18 18 21 23 20 16 16 17 18 19 20 20 20 23 26 29 41 45 47 55 58 68 67 58 55 54 52 50 51 54 61 67 79 87
11 15 11 10 9 9 10 11 15 16 17 18 18 18 16 16 17 19 20 20 21 20 21 24 30 37 42 47 54 65 64 63 67 64 59 60 55 53 55 57 60 69 77 85
13 12 11 10 8 8 8 8 15 13 18 17 17 19 19 17 19 20 20 21 21 22 24 23 33 42 44 50 58 60 60 62 69 74 62 62 56 55 56 58 62 71 78 85
14 12 11 10 10 9 11 7 6 14 16 17 17 15 21 19 21 21 23 24 23 23 24 23 33 42 48 50 54 59 68 67 72 75 70 69 62 60 61 61 67 72 79 83
17 16 14 13 11 10 13 9 7 10 14 14 12 19 12 17 21 22 24 25 23 24 24 24 26 38 52 54 59 73 70 72 74 75 76 77 68 63 60 59 63 78 80 81
13 10 10 11 10 10 9 10 10 9 12 16 10 14 20 20 20 22 24 24 23 24 24 25 29 33 42 60 70 68 70 72 71 68 67 70 66 60 53 52 54 78 81 83
10 10 9 10 10 10 10 11 12 14 15 13 10 9 19 25 24 25 26 24 24 24 28 29 32 36 45 64 69 70 70 68 68 66 70 71 64 54 48 51 53 68 89 83
12 17 11 10 12 12 10 9 11 13 9 8 10 8 25 25 26 24 23 23 24 25 29 31 35 42 54 64 73 74 69 65 68 69 71 69 65 52 50 53 55 58 91 94
8 10 10 10 10 9 12 10 11 11 10 14 8 24 25 26 27 26 24 24 27 27 30 32 38 55 59 71 76 74 69 66 68 70 70 66 61 56 52 52 54 58 72 78
10 12 8 10 9 9 10 10 13 14 17 17 8 8 22 31 26 27 27 28 29 30 32 36 47 59 68 73 72 72 71 71 74 75 71 66 58 56 52 52 56 60 64 70
10 11 13 9 10 9 10 10 14 12 11 14 14 15 23 24 25 28 28 31 34 35 38 44 54 62 67 71 70 67 72 70 70 66 61 59 57 52 50 53 57 62 64 68
16 15 14 9 14 11 11 11 13 16 14 16 20 23 27 28 28 27 28 31 36 38 48 54 54 60 65 68 66 61 68 64 59 52 53 56 54 50 50 54 58 62 63 65
14 16 16 15 17 15 14 13 12 13 18 16 19 20 29 28 28 29 31 34 35 40 47 48 53 59 63 64 63 58 58 55 49 45 45 49 49 47 50 56 59 61 62 63
20 15 16 17 12 14 14 12 12 13 19 16 14 12 34 32 31 29 32 35 35 41 47 50 53 59 64 61 58 52 49 46 41 36 38 43 47 49 54 59 60 62 61 62
21 23 18 14 10 11 12 10 8 9 13 17 15 12 11 14 26 31 34 36 37 44 48 53 55 58 58 53 50 42 38 38 38 37 38 42 47 50 58 61 61 62 62 65
22 25 24 22 14 17 17 13 11 10 10 11 12 14 16 25 27 31 32 36 40 47 52 53 54 57 53 47 40 34 36 40 39 39 40 42 46 51 60 62 62 62 65 72
28 25 29 28 18 18 26 18 14 12 10 14 16 21 26 28 28 29 30 38 45 50 55 55 56 59 50 42 38 40 39 40 41 43 42 44 46 52 59 61 64 65 67 68
28 27 26 34 26 67 23 18 18 15 15 16 16 21 24 25 27 28 34 38 48 57 61 62 63 62 46 46 45 42 41 41 43 46 49 48 48 51 58 63 64 63 62 60
24 26 46 72 38 26 16 15 18 20 16 17 18 22 26 28 29 35 36 43 50 61 64 66 67 56 52 51 46 44 45 46 47 51 53 53 51 52 57 60 61 57 54 50
27 30 33 88 93 46 25 20 19 20 24 19 19 24 29 30 33 45 48 51 58 64 62 62 53 52 55 50 46 48 49 49 53 53 54 54 55 47 55 53 50 48 47 46
39 36 42 44 71 46 16 21 21 31 35 21 20 25 30 33 40 48 49 52 57 62 63 56 58 52 50 48 48 50 53 56 53 54 58 61 54 42 45 44 42 42 45 48
32 40 44 35 46 59 19 24 28 39 30 26 26 31 34 39 43 50 48 53 58 63 58 62 59 54 51 49 48 52 62 55 56 61 65 66 52 40 35 36 39 40 45 48
33 24 33 26 28 31 22 27 31 30 28 32 33 36 36 41 43 50 52 60 62 60 64 63 56 52 49 50 53 61 70 67 71 71 64 56 41 34 33 33 37 42 46 48
26 24 33 31 19 22 24 22 31 31 32 31 32 37 39 43 43 51 58 64 65 68 66 57 54 50 56 60 72 83 90 78 71 55 43 33 33 30 32 42 36 47 49 52
27 28 29 27 23 24 27 25 27 33 33 35 36 39 41 43 49 54 62 66 69 64 62 60 59 61 80 82 92 87 74 62 43 35 33 30 30 31 31 37 57 59 65 65
26 26 33 35 38 34 37 35 29 39 40 38 40 44 46 48 53 59 64 68 65 65 61 62 65 81 86 87 85 74 50 40 36 30 30 36 33 35 37 39 43 58 61 57
Wind_Speed
3 6 10 8 7 7 5 2 9 7 4 7 10 13 12 10 9 8 6 8 10 12 15 18 19 19 19 20 22 23 23 24 25 26 25 25 25 23 21 21 23 25 26 27
6 10 6 4 4 4 2 2 7 4 4 5 10 11 11 8 5 5 6 8 10 12 13 17 19 19 20 21 22 22 22 25 24 24 23 23 23 21 20 22 23 25 26 26
9 10 2 1 4 3 4 6 4 5 6 7 10 12 13 10 10 8 6 7 10 11 12 16 17 19 20 21 21 20 22 23 24 24 23 24 22 22 23 25 25 25 25 25
7 4 2 1 4 8 4 3 5 6 8 4 13 7 17 16 12 8 5 7 9 10 12 15 15 16 19 19 19 21 21 23 23 24 23 24 24 24 24 25 25 25 24 26
6 4 2 2 6 7 5 2 5 8 11 12 11 8 7 18 13 10 5 6 8 9 12 13 17 15 16 18 19 19 19 21 22 22 21 22 23 22 23 24 25 25 25 26
8 4 4 5 1 3 1 5 5 8 9 10 15 9 13 14 10 11 5 6 7 9 11 13 14 14 14 16 18 18 19 20 21 21 21 22 23 23 23 25 23 24 26 27
6 4 5 3 6 5 7 8 6 8 6 6 5 6 9 11 11 8 4 5 7 9 9 12 14 15 16 16 17 18 19 20 22 22 21 21 22 21 22 24 24 23 25 27
5 7 1 2 4 7 5 7 6 6 8 8 9 5 7 11 10 6 4 4 6 8 9 11 14 15 18 15 17 17 19 20 21 21 21 21 21 22 22 23 23 23 23 24
2 4 5 4 3 5 4 5 6 7 12 6 6 7 9 10 9 5 3 4 7 9 9 11 13 16 14 17 16 17 19 18 19 20 20 20 21 21 21 21 22 23 22 24
3 3 1 4 4 4 6 5 5 5 4 8 7 12 9 12 10 5 2 6 7 8 9 11 15 14 16 15 16 17 17 18 18 18 19 20 20 21 20 20 22 23 23 24
2 3 6 3 5 4 4 6 3 4 5 5 8 3 5 8 6 3 4 5 7 8 9 11 11 11 13 13 14 15 16 17 17 17 17 18 19 20 20 21 22 22 23 24
3 2 4 2 4 4 7 8 6 4 3 5 5 4 5 7 7 2 4 5 5 7 7 8 8 10 11 12 14 15 16 16 16 16 17 18 19 20 20 21 22 22 22 22
4 3 4 6 5 5 6 5 7 6 6 11 10 3 7 7 4 4 3 3 3 4 3 5 8 10 11 13 13 14 14 15 16 17 17 19 20 20 21 21 21 21 22 23
1 3 7 8 7 5 4 7 8 10 8 11 11 14 12 8 5 2 1 1 2 3 5 7 8 9 10 11 13 13 14 15 16 16 17 18 20 20 20 20 20 21 22 23
3 4 5 9 8 8 11 14 14 15 15 15 15 15 12 3 2 2 1 1 1 2 4 5 7 9 10 11 12 12 13 15 16 16 17 18 18 19 19 20 20 20 21 22
4 3 4 8 8 7 13 17 18 17 15 16 16 16 7 10 7 5 3 2 0 2 3 4 7 8 9 11 10 11 13 14 15 16 17 17 18 19 19 20 20 20 21 22
5 3 2 4 2 8 12 9 11 12 9 7 9 4 5 5 4 2 3 2 2 2 3 4 6 6 8 9 9 11 12 13 14 15 16 18 18 19 19 20 21 21 22 22
5 6 2 4 5 4 1 2 4 2 6 7 6 3 3 1 3 2 3 3 5 3 2 3 4 5 6 7 9 10 11 12 13 14 16 17 18 19 19 20 21 21 21 22
4 6 3 2 5 12 16 7 4 5 7 7 7 6 5 4 2 7 7 5 6 6 3 3 1 3 5 6 8 9 10 11 12 14 15 16 16 17 19 20 21 21 21 22
4 7 6 2 3 4 6 5 2 2 8 7 6 7 7 5 7 7 9 8 8 6 3 2 2 2 2 6 8 9 10 11 13 14 14 14 15 15 17 18 18 20 20 21
6 6 11 8 5 7 2 7 3 4 4 7 4 6 5 4 5 10 10 8 7 6 5 5 4 1 4 5 7 8 9 11 12 12 13 14 14 14 16 17 19 20 21 20
9 6 5 7 7 7 9 8 4 4 1 5 4 5 4 7 9 8 9 8 7 6 7 4 2 3 4 7 6 7 8 10 10 11 12 13 14 15 16 17 19 20 22 22
4 6 3 6 3 4 9 3 6 1 3 4 4 6 5 7 8 8 7 9 7 7 5 4 3 4 5 7 8 6 7 9 9 10 10 10 14 14 15 18 19 20 22 22
5 1 3 1 6 8 5 7 3 2 3 5 5 7 6 7 9 9 10 9 7 7 5 3 3 4 5 6 6 6 7 8 9 10 10 11 13 14 15 14 18 18 21 22
2 7 6 9 10 7 7 7 5 5 3 5 5 6 6 7 9 9 10 10 8 7 6 4 5 5 4 5 6 6 7 7 6 8 11 11 12 14 14 14 13 16 15 16
6 8 7 5 7 1 2 5 6 8 8 7 7 7 6 9 10 12 11 11 8 9 7 7 7 6 4 4 4 6 6 8 8 8 9 12 12 13 14 14 13 16 18 16
Wind_Direction
231 257 44 42 19 11 22 349 84 113 62 101 134 149 153 150 152 132 93 63 48 36 37 26 21 19 20 14 10 16 8 7 358 355 354 351 347 347 351 352 351 352 351 351
213 74 69 58 43 42 76 117 105 86 142 208 158 154 150 162 103 92 87 61 38 25 27 25 18 24 22 18 14 15 7 4 2 358 353 349 347 349 354 352 353 351 351 353
43 93 84 13 103 117 42 342 164 340 164 248 186 181 172 152 145 132 97 55 40 27 20 22 20 28 19 17 15 11 9 9 5 2 357 355 355 355 356 355 353 349 352 354
76 95 87 107 96 327 226 51 291 178 220 237 202 303 186 166 165 166 113 48 27 19 24 20 19 25 16 15 16 15 12 7 7 6 3 2 359 357 354 354 351 350 354 355
101 130 111 272 30 328 67 316 262 241 236 277 207 250 162 161 177 165 108 54 23 19 24 19 15 36 18 16 19 14 6 6 6 7 7 6 359 356 351 355 354 353 357 355
98 93 24 35 160 23 135 229 231 253 251 256 258 206 147 173 201 130 105 53 21 23 22 20 22 24 27 26 18 6 6 7 7 6 7 5 359 354 352 357 359 355 355 355
156 99 115 342 256 191 225 253 259 224 194 250 115 204 58 91 72 82 71 31 22 24 24 20 21 16 29 30 10 14 9 8 7 6 5 2 356 358 359 359 358 2 353 354
220 173 276 34 349 335 302 309 300 305 327 335 160 271 104 107 110 113 88 40 14 21 24 21 23 17 27 17 22 13 10 8 7 4 359 357 356 3 4 2 0 1 355 349
266 131 129 50 332 304 97 256 12 290 264 265 246 104 124 147 143 143 80 30 21 19 20 24 29 30 10 26 13 10 7 8 7 4 359 358 3 3 3 1 1 360 360 355
66 237 187 79 262 191 279 1 252 198 285 302 301 285 87 172 173 138 90 22 24 16 22 34 43 18 19 15 8 6 5 6 5 0 0 355 359 359 2 2 2 0 358 357
8 273 124 210 212 345 187 220 241 304 292 299 305 27 37 130 119 125 54 35 24 22 24 37 38 28 21 12 6 3 7 4 2 358 355 355 359 1 2 3 3 359 357 358
55 305 256 16 82 305 285 285 276 280 300 251 279 298 112 128 128 73 53 53 40 47 40 47 28 29 13 12 6 4 2 360 358 357 356 1 359 1 2 4 2 359 359 359
153 198 249 181 192 191 240 200 254 285 287 270 282 307 156 134 147 75 18 31 74 78 47 38 28 19 14 9 8 358 359 1 0 359 359 3 2 2 3 1 1 359 358 359
341 261 267 291 349 326 253 250 247 259 268 277 278 313 172 191 229 131 240 334 54 66 37 23 19 16 8 7 358 357 5 4 3 3 3 6 3 1 2 0 0 360 359 1
262 260 263 279 291 273 276 277 273 255 259 269 285 296 313 268 169 137 154 213 144 46 38 25 10 10 2 3 3 4 10 6 4 4 4 7 3 3 3 2 1 0 2 2
191 270 275 277 257 275 278 273 268 263 268 275 277 285 36 83 129 169 190 226 277 74 33 18 15 9 359 8 3 10 8 6 5 5 4 6 7 5 3 2 0 1 3 4
191 230 249 279 10 305 279 275 280 252 256 272 273 34 117 140 173 223 209 172 161 86 49 6 22 6 7 11 3 8 5 5 5 8 6 5 9 8 3 2 1 0 2 2
205 213 232 282 316 250 44 46 1 302 264 249 244 231 196 75 88 140 111 132 131 120 83 17 21 347 19 6 6 4 6 7 6 9 7 5 8 8 2 3 3 360 0 2
237 217 174 244 234 298 264 187 235 230 301 191 221 173 150 135 216 163 110 90 112 126 117 87 50 341 17 3 5 4 5 6 6 8 6 2 5 7 3 3 0 358 358 2
203 257 227 131 230 248 84 128 130 291 266 131 186 174 172 184 277 112 125 134 118 106 98 128 92 66 345 15 359 7 5 4 4 3 2 359 4 6 3 0 359 359 1 4
186 205 220 218 231 278 273 138 166 240 65 141 167 165 183 237 53 112 132 126 125 127 137 128 117 92 11 3 353 17 9 7 359 0 4 360 6 7 4 3 6 5 5 7
185 190 202 227 237 261 134 145 227 56 162 162 160 135 177 114 130 132 129 132 128 133 145 137 131 69 37 17 11 28 13 1 0 4 8 5 5 10 9 9 10 11 9 9
241 220 241 215 219 101 181 36 98 54 186 182 189 141 159 155 149 153 142 139 144 143 136 185 136 91 45 31 28 32 4 359 3 6 358 2 10 14 16 18 15 15 13 11
235 268 236 314 266 221 216 230 170 209 239 186 192 170 173 165 144 149 147 151 148 139 165 172 131 84 62 39 31 22 4 358 357 358 8 14 17 12 18 21 22 20 16 12
16 152 240 252 266 249 249 248 220 202 212 175 169 166 165 151 137 150 155 158 154 155 156 145 104 96 73 47 26 14 7 352 356 18 18 16 18 16 17 20 20 18 15 13
206 235 234 271 6 305 78 337 190 189 192 185 172 157 149 145 145 152 160 155 161 154 148 123 116 107 84 55 28 14 19 24 22 28 23 21 20 20 19 17 15 9 7 6